• In Lithuania
  • List of Countries
  • For 7 days
  • Water Temperature
  • Satellite Maps
  • Weather Map
  • Weather Widgets
  • user-avatar
    Login

    Hourly Weather Cam Ranh

    Today, 19 January, Friday

    Time Temperature Precipitation Wind Pressure Humidity
    00:00 +23°C° 0 mm 6 mps 753 mmHg 87%
    01:00 +23°C° 0 mm 6 mps 753 mmHg 87%
    02:00 +24°C° 0.1 mm 6 mps 753 mmHg 87%
    03:00 +24°C° 0.1 mm 6 mps 753 mmHg 87%
    04:00 +24°C° 0.1 mm 6 mps 753 mmHg 87%
    05:00 +24°C° 0.1 mm 6 mps 753 mmHg 87%
    06:00 +24°C° 0.1 mm 6 mps 753 mmHg 87%
    07:00 +24°C° 0 mm 6 mps 754 mmHg 85%
    08:00 +26°C° 0.1 mm 6 mps 754 mmHg 82%
    09:00 +27°C° 0.1 mm 6 mps 754 mmHg 79%
    10:00 +28°C° 0.1 mm 7 mps 754 mmHg 76%
    11:00 +29°C° 0.1 mm 7 mps 754 mmHg 73%
    12:00 +30°C° 0.1 mm 7 mps 753 mmHg 71%
    13:00 +30°C° 0.1 mm 7 mps 753 mmHg 68%
    14:00 +30°C° 0.1 mm 7 mps 753 mmHg 69%
    15:00 +30°C° 0.1 mm 7 mps 752 mmHg 70%
    16:00 +29°C° 0.1 mm 7 mps 752 mmHg 71%
    17:00 +28°C° 0 mm 7 mps 752 mmHg 77%
    18:00 +27°C° 0 mm 7 mps 753 mmHg 84%
    19:00 +24°C° 0 mm 6 mps 753 mmHg 90%
    20:00 +24°C° 0 mm 6 mps 753 mmHg 90%
    21:00 +24°C° 0 mm 6 mps 753 mmHg 90%
    22:00 +24°C° 0 mm 6 mps 754 mmHg 90%
    23:00 +24°C° 0.1 mm 6 mps 753 mmHg 90%

    Tomorrow, 20 January, Saturday

    Time Temperature Precipitation Wind Pressure Humidity
    00:00 +24°C° 0.1 mm 6 mps 753 mmHg 90%
    01:00 +24°C° 0.1 mm 6 mps 753 mmHg 90%
    02:00 +24°C° 0.2 mm 6 mps 753 mmHg 90%
    03:00 +24°C° 0.2 mm 6 mps 752 mmHg 91%
    04:00 +24°C° 0.2 mm 6 mps 752 mmHg 91%
    05:00 +24°C° 0.2 mm 6 mps 752 mmHg 90%
    06:00 +24°C° 0.2 mm 6 mps 753 mmHg 89%
    07:00 +26°C° 0.2 mm 6 mps 753 mmHg 88%
    08:00 +27°C° 0.2 mm 6 mps 753 mmHg 83%
    09:00 +28°C° 0.2 mm 6 mps 753 mmHg 79%
    10:00 +29°C° 0.2 mm 6 mps 753 mmHg 74%
    11:00 +30°C° 0.1 mm 6 mps 753 mmHg 70%
    12:00 +32°C° 0.1 mm 6 mps 753 mmHg 66%
    13:00 +32°C° 0.1 mm 6 mps 752 mmHg 62%
    14:00 +32°C° 0 mm 6 mps 752 mmHg 64%
    15:00 +30°C° 0 mm 6 mps 751 mmHg 67%
    16:00 +30°C° 0 mm 6 mps 751 mmHg 69%
    17:00 +28°C° 0 mm 6 mps 752 mmHg 76%
    18:00 +27°C° 0 mm 6 mps 752 mmHg 83%
    19:00 +26°C° 0 mm 6 mps 752 mmHg 90%
    20:00 +26°C° 0 mm 6 mps 753 mmHg 90%
    21:00 +24°C° 0 mm 6 mps 753 mmHg 90%
    22:00 +24°C° 0 mm 6 mps 753 mmHg 90%
    23:00 +24°C° 0.1 mm 6 mps 753 mmHg 90%

    Day after tomorrow, 21 January, Sunday

    Time Temperature Precipitation Wind Pressure Humidity
    00:00 +24°C° 0.1 mm 6 mps 753 mmHg 90%
    01:00 +24°C° 0.1 mm 6 mps 753 mmHg 90%
    02:00 +24°C° 0.2 mm 6 mps 752 mmHg 91%
    03:00 +24°C° 0.2 mm 6 mps 752 mmHg 91%
    04:00 +24°C° 0.2 mm 6 mps 751 mmHg 92%
    05:00 +25°C° 0.2 mm 5 mps 752 mmHg 91%
    06:00 +25°C° 0.2 mm 5 mps 752 mmHg 91%
    07:00 +25°C° 0.2 mm 5 mps 753 mmHg 91%
    08:00 +26°C° 0.2 mm 6 mps 753 mmHg 84%
    09:00 +28°C° 0.2 mm 6 mps 753 mmHg 78%
    10:00 +30°C° 0.2 mm 6 mps 753 mmHg 71%
    11:00 +30°C° 0.1 mm 6 mps 753 mmHg 68%
    12:00 +32°C° 0.1 mm 6 mps 752 mmHg 64%
    13:00 +33°C° 0.1 mm 6 mps 751 mmHg 61%
    14:00 +32°C° 0 mm 7 mps 751 mmHg 63%
    15:00 +32°C° 0 mm 7 mps 750 mmHg 66%
    16:00 +30°C° 0 mm 7 mps 750 mmHg 69%
    17:00 +29°C° 0 mm 6 mps 751 mmHg 75%
    18:00 +28°C° 0 mm 6 mps 752 mmHg 81%
    19:00 +26°C° 0 mm 6 mps 752 mmHg 88%
    20:00 +26°C° 0.1 mm 6 mps 753 mmHg 89%
    21:00 +26°C° 0.1 mm 5 mps 753 mmHg 90%
    22:00 +26°C° 0.1 mm 5 mps 753 mmHg 91%
    23:00 +26°C° 0.1 mm 5 mps 753 mmHg 91%

    22 January, Monday

    Time Temperature Precipitation Wind Pressure Humidity
    00:00 +25°C° 0.1 mm 5 mps 752 mmHg 92%
    01:00 +25°C° 0.1 mm 4 mps 752 mmHg 92%
    02:00 +25°C° 0.1 mm 5 mps 752 mmHg 92%
    03:00 +25°C° 0.1 mm 5 mps 751 mmHg 93%
    04:00 +25°C° 0.1 mm 5 mps 751 mmHg 93%
    05:00 +25°C° 0 mm 5 mps 752 mmHg 92%
    06:00 +26°C° 0 mm 5 mps 752 mmHg 91%
    07:00 +26°C° 0 mm 5 mps 752 mmHg 90%
    08:00 +28°C° 0 mm 5 mps 753 mmHg 81%
    09:00 +29°C° 0 mm 6 mps 753 mmHg 73%
    10:00 +32°C° 0 mm 6 mps 753 mmHg 64%
    11:00 +32°C° 0.1 mm 6 mps 752 mmHg 65%
    12:00 +32°C° 0.1 mm 7 mps 752 mmHg 66%
    13:00 +32°C° 0.1 mm 7 mps 751 mmHg 68%
    14:00 +32°C° 0.2 mm 7 mps 751 mmHg 71%
    15:00 +30°C° 0.2 mm 7 mps 750 mmHg 74%
    16:00 +29°C° 0.2 mm 7 mps 750 mmHg 78%
    17:00 +28°C° 0 mm 6 mps 751 mmHg 82%
    18:00 +27°C° 0 mm 6 mps 751 mmHg 86%
    19:00 +26°C° 0 mm 5 mps 752 mmHg 90%
    20:00 +26°C° 0 mm 5 mps 752 mmHg 91%
    21:00 +26°C° 0 mm 5 mps 753 mmHg 91%
    22:00 +25°C° 0 mm 4 mps 753 mmHg 91%
    23:00 +25°C° 0 mm 4 mps 753 mmHg 91%

    23 January, Tuesday

    Time Temperature Precipitation Wind Pressure Humidity
    00:00 +25°C° 0 mm 4 mps 752 mmHg 92%
    01:00 +25°C° 0 mm 4 mps 752 mmHg 92%
    02:00 +25°C° 0 mm 4 mps 751 mmHg 91%
    03:00 +25°C° 0 mm 4 mps 751 mmHg 91%
    04:00 +23°C° 0 mm 4 mps 751 mmHg 90%
    05:00 +25°C° 0 mm 4 mps 752 mmHg 88%
    06:00 +25°C° 0 mm 4 mps 752 mmHg 86%
    07:00 +26°C° 0 mm 4 mps 753 mmHg 84%
    08:00 +27°C° 0 mm 4 mps 753 mmHg 79%
    09:00 +29°C° 0 mm 5 mps 753 mmHg 74%
    10:00 +32°C° 0 mm 5 mps 753 mmHg 69%
    11:00 +32°C° 0.4 mm 5 mps 753 mmHg 71%
    12:00 +32°C° 0.4 mm 5 mps 752 mmHg 72%
    13:00 +32°C° 0.4 mm 5 mps 751 mmHg 74%
    14:00 +30°C° 0.3 mm 5 mps 751 mmHg 76%
    15:00 +29°C° 0.3 mm 5 mps 751 mmHg 78%
    16:00 +29°C° 0.3 mm 5 mps 750 mmHg 81%
    17:00 +28°C° 0.1 mm 5 mps 751 mmHg 85%
    18:00 +27°C° 0.1 mm 4 mps 751 mmHg 89%
    19:00 +26°C° 0.1 mm 4 mps 752 mmHg 93%
    20:00 +26°C° 0.1 mm 3 mps 752 mmHg 94%
    21:00 +25°C° 0.1 mm 3 mps 753 mmHg 94%
    22:00 +25°C° 0.1 mm 3 mps 753 mmHg 95%
    23:00 +25°C° 0.1 mm 3 mps 753 mmHg 95%

    24 January, Wednesday

    Time Temperature Precipitation Wind Pressure Humidity
    00:00 +25°C° 0.1 mm 3 mps 752 mmHg 94%
    01:00 +25°C° 0.1 mm 3 mps 752 mmHg 94%
    02:00 +25°C° 0.1 mm 3 mps 752 mmHg 94%
    03:00 +25°C° 0.1 mm 3 mps 751 mmHg 94%
    04:00 +24°C° 0.1 mm 3 mps 751 mmHg 95%
    05:00 +25°C° 0 mm 4 mps 752 mmHg 94%
    06:00 +25°C° 0 mm 4 mps 752 mmHg 93%
    07:00 +25°C° 0 mm 4 mps 752 mmHg 92%
    08:00 +27°C° 0 mm 4 mps 753 mmHg 82%
    09:00 +29°C° 0 mm 4 mps 753 mmHg 73%
    10:00 +32°C° 0 mm 5 mps 753 mmHg 64%
    11:00 +32°C° 0 mm 5 mps 752 mmHg 62%
    12:00 +33°C° 0 mm 5 mps 751 mmHg 60%
    13:00 +33°C° 0 mm 6 mps 751 mmHg 59%
    14:00 +33°C° 0.1 mm 6 mps 751 mmHg 61%
    15:00 +32°C° 0.1 mm 6 mps 750 mmHg 64%
    16:00 +30°C° 0.1 mm 6 mps 750 mmHg 66%
    17:00 +29°C° 0 mm 5 mps 751 mmHg 75%
    18:00 +27°C° 0 mm 5 mps 751 mmHg 84%
    19:00 +25°C° 0 mm 5 mps 752 mmHg 93%
    20:00 +25°C° 0 mm 4 mps 752 mmHg 94%
    21:00 +25°C° 0 mm 4 mps 752 mmHg 94%
    22:00 +25°C° 0 mm 4 mps 752 mmHg 95%
    23:00 +23°C° 0 mm 4 mps 752 mmHg 93%
    Show more